Location: Rocktram
(38.2574°N, 122.2805°W)
Time: 00:27:19
(UTC+00:00)

SJ 16-02 - Pass Details

Date: 30 March 2020
Orbit: 606 x 617 km, 75.0° (Epoch: 27 May)

Event Time Altitude Azimuth Distance (km) Brightness Sun altitude
Exits shadow 10:20:39 12° 48° (NE) 1,807 4.4 -38.5°
Drops below altitude 10° 10:21:09 10° 44° (NE) 1,967 4.6 -38.4°
Sets 10:23:41 0° 31° (NNE) 2,874 5.7 -38.1°
